Weather History for KFDR - February, 2014

Change the Weather History Date:

Wednesday, February 26, 2014

  Actual Average (KLTS) Record (KLTS)
Temperature  
Mean Temperature 29 °F -  
Max Temperature 39 °F 55 °F 39 °F (2015)
Min Temperature 19 °F 31 °F 18 °F (2014)
Degree Days  
Heating Degree Days 36    
Moisture  
Dew Point 12 °F    
Average Humidity 50    
Maximum Humidity 64    
Minimum Humidity 34    
Precipitation  
Precipitation 0.00 in - - ()
Sea Level Pressure  
Sea Level Pressure 30.28 in    
Wind  
Wind Speed 17 mph (North)    
Max Wind Speed 30 mph    
Max Gust Speed 40 mph    
Averages and records for this station are not official NWS values.
T = Trace of Precipitation, MM = Missing Value Source: NWS Daily Summary

Daily Weather History Graph

Daily Weather History Graph

Search for Another Location

Airport or City:

Trip Planner

Search our weather history database for the weather conditions in past years. The results will help you decide how hot, cold, wet, or windy it might be!

Date:

Astronomy

Feb. 26, 2014 Rise Set
Actual Time 7:08 AM CST 6:29 PM CST
Civil Twilight 6:43 AM CST 6:54 PM CST
Nautical Twilight 6:14 AM CST 7:24 PM CST
Astronomical Twilight 5:45 AM CST 7:53 PM CST
Moon 4:50 AM CST (2/26) 3:50 PM CST (2/26)
Length of Visible Light 12h 11m
Length of Day
11h 21m
Waning Crescent, 10% of the Moon is Illuminated
Feb 26
Waning Crescent
Mar 1
New
Mar 8
First Quarter
Mar 16
Full
Mar 23
Last Quarter

Hourly Weather History & Observations

Time (CST) Temp. Windchill Dew Point Humidity Pressure Visibility Wind Dir Wind Speed Gust Speed Precip Events Conditions
12:53 AM 30.0 °F 14.9 °F 19.0 °F 64% 30.34 in - NNE 29.9 mph 38.0 mph N/A   Overcast
1:53 AM 28.0 °F 13.0 °F 17.1 °F 63% 30.35 in - NNE 26.5 mph 40.3 mph N/A   Overcast
2:53 AM 26.1 °F 11.6 °F 14.0 °F 60% 30.34 in - North 21.9 mph 26.5 mph N/A   Mostly Cloudy
3:53 AM 25.0 °F 9.5 °F 12.9 °F 60% 30.35 in - North 24.2 mph 28.8 mph N/A   Clear
4:53 AM 23.0 °F 9.2 °F 10.0 °F 58% 30.36 in - North 17.3 mph - N/A   Clear
5:53 AM 21.0 °F 5.0 °F 7.0 °F 55% 30.39 in - North 21.9 mph 32.2 mph N/A   Clear
6:53 AM 19.9 °F 6.2 °F 8.1 °F 60% 30.40 in - North 15.0 mph 25.3 mph N/A   Clear
7:53 AM 19.9 °F 6.2 °F 9.0 °F 62% 30.41 in - North 15.0 mph - N/A   Clear
8:53 AM 23.0 °F 9.2 °F 10.0 °F 58% 30.40 in - North 17.3 mph - N/A   Clear
9:53 AM 26.1 °F 16.2 °F 10.0 °F 51% 30.39 in - North 10.4 mph - N/A   Clear
10:53 AM 28.0 °F 18.6 °F 10.9 °F 49% 30.37 in - North 10.4 mph - N/A   Clear
11:53 AM 30.9 °F 22.2 °F 10.9 °F 43% 30.35 in - North 10.4 mph 18.4 mph N/A   Clear
12:53 PM 33.1 °F 26.9 °F 12.0 °F 42% 30.30 in - Variable 6.9 mph - N/A   Clear
1:53 PM 36.0 °F 28.0 °F 12.0 °F 37% 30.24 in - North 11.5 mph 19.6 mph N/A   Clear
2:53 PM 37.0 °F 32.4 °F 12.0 °F 36% 30.21 in - Variable 5.8 mph - N/A   Clear
3:53 PM 37.0 °F 32.4 °F 12.0 °F 36% 30.19 in - WNW 5.8 mph - N/A   Clear
4:53 PM 39.0 °F 35.7 °F 12.9 °F 34% 30.17 in - NNW 4.6 mph - N/A   Clear
5:53 PM 37.9 °F - 12.9 °F 36% 30.16 in - Calm Calm - N/A   Clear
6:53 PM 35.1 °F - 12.9 °F 40% 30.16 in - Calm Calm - N/A   Clear
7:53 PM 32.0 °F - 12.0 °F 44% 30.17 in - Calm Calm - N/A   Clear
8:53 PM 30.0 °F 25.2 °F 12.0 °F 47% 30.16 in - South 4.6 mph - N/A   Clear
9:53 PM 27.0 °F 19.5 °F 12.0 °F 53% 30.17 in - SSW 6.9 mph - N/A   Clear
10:53 PM 28.0 °F 24.2 °F 12.9 °F 53% 30.16 in - SW 3.5 mph - N/A   Clear
11:53 PM 26.1 °F - 12.9 °F 58% 30.14 in - Calm Calm - N/A   Clear